Lid_Strength_Index
0 -0 -0 -0 -0 -1 -0 -1 -1 -1 -1 -1 -1 -1 -0 -0 -0 -0 -0 0 0 0 0 1 1 0 1 1 1 1 1 2 3 2 2 1 0 1 1 -0 2 2 4
0 0 0 -0 -0 -0 -0 -1 -1 -1 -1 -1 -1 -1 -0 -0 -0 -0 1 0 1 1 1 1 1 1 1 1 1 1 1 1 2 3 3 2 1 1 0 0 1 2 3
0 0 0 0 -0 -0 -0 -1 -1 -1 -1 -1 -1 -0 -0 -0 -0 -0 0 0 0 0 0 1 1 1 1 1 1 1 1 1 1 3 3 3 1 2 1 0 0 2 2
0 0 0 0 0 -0 -0 -1 -1 -1 -0 -0 -0 -0 -0 -0 -0 -0 -0 0 0 0 0 0 0 1 1 1 1 1 1 2 1 3 4 4 2 2 1 2 2 2 3
1 1 0 0 -0 -0 -0 -0 -0 -0 -0 -0 -0 -0 -0 -0 0 -0 -0 0 1 1 0 0 0 1 2 1 1 1 2 2 2 3 4 5 4 4 3 1 2 3 2
1 1 0 0 0 0 -0 0 -0 0 -0 -0 0 0 0 0 2 3 1 1 0 1 1 1 0 1 2 6 5 3 3 2 3 3 3 5 3 3 2 2 2 3 5
1 1 1 0 1 0 0 0 0 1 0 0 0 0 0 -0 4 4 3 0 1 1 1 1 1 1 2 2 6 5 5 6 4 2 2 2 3 1 1 1 2 3 4
1 1 1 1 1 1 1 1 1 1 1 1 1 0 0 0 4 4 4 0 1 1 0 0 1 1 1 2 4 4 4 4 3 3 1 1 0 0 1 1 1 2 3
1 1 1 1 1 1 1 1 1 1 1 1 1 1 1 0 4 5 4 1 1 1 0 0 1 1 5 8 5 4 5 6 9 9 7 8 8 8 4 3 4 4 5
1 1 1 1 1 1 1 1 1 1 1 1 1 0 1 1 3 5 4 1 1 2 1 1 7 2 10 10 5 6 7 7 6 5 6 7 5 6 7 2 5 6 6
1 1 1 1 1 1 1 1 1 1 1 1 1 1 1 1 1 5 6 1 2 2 2 2 4 9 11 11 8 5 7 8 7 5 6 5 4 5 5 4 4 6 6
2 1 1 1 1 1 1 1 1 1 2 2 2 2 1 1 3 3 6 7 3 2 2 2 4 11 11 10 8 11 11 9 7 6 6 6 6 6 6 6 5 5 4
4 3 3 2 3 2 1 2 2 2 2 2 2 2 2 1 1 5 7 9 9 2 2 5 9 11 10 10 11 12 10 7 7 7 7 6 6 6 6 7 7 6 5
5 5 5 4 4 3 3 3 3 3 3 3 2 2 2 2 1 1 1 5 9 4 7 7 9 9 9 9 10 10 7 7 7 6 7 5 6 7 8 9 9 9 9
9 8 8 8 7 7 6 4 3 2 2 3 3 2 2 2 2 3 3 2 3 5 7 8 8 8 10 10 9 7 7 7 6 6 7 7 7 8 9 9 9 10 10
10 10 10 9 8 7 6 5 6 6 5 6 6 4 1 5 8 8 9 9 9 10 6 8 7 9 9 10 9 8 7 8 7 8 7 7 8 9 9 9 9 10 11
9 9 9 9 8 7 7 6 5 4 6 7 7 7 8 5 8 9 10 10 10 9 5 6 5 7 9 9 8 9 9 8 8 8 7 7 8 8 9 9 10 10 10
9 10 9 8 7 7 6 6 5 5 5 3 6 7 7 8 10 10 11 11 10 7 5 6 7 8 8 8 9 9 9 8 8 8 6 6 7 9 9 10 10 10 9
8 8 7 6 6 6 5 5 5 4 4 3 3 7 9 10 11 12 11 7 8 7 6 8 8 8 9 8 8 8 8 8 8 6 6 7 8 8 8 9 10 13 12
9 8 8 6 5 5 6 5 4 4 3 4 4 5 9 10 11 11 7 7 7 6 8 9 9 9 8 8 9 8 9 8 7 6 6 7 8 7 8 9 10 10 10
8 8 9 7 6 5 5 4 4 3 3 4 6 8 12 8 9 9 8 7 7 8 9 9 9 8 8 8 8 8 8 8 7 7 6 6 7 8 8 9 9 10 9
7 7 7 6 5 4 3 3 3 3 4 7 8 9 13 8 9 8 7 8 8 9 9 9 9 9 8 8 8 9 8 8 7 8 8 7 7 8 8 8 9 9 10
6 5 5 4 3 5 3 3 3 3 6 7 8 9 8 9 8 8 9 9 9 9 9 9 9 9 8 7 6 8 8 7 7 7 8 7 8 8 8 8 8 9 10
4 3 3 3 3 3 3 3 4 8 7 7 8 8 8 8 9 9 9 9 9 9 9 9 9 9 9 7 7 7 6 6 6 6 7 8 8 9 8 8 9 9 10
3 3 3 3 4 5 6 6 7 7 8 8 7 7 8 9 9 10 9 9 9 10 10 10 9 9 7 7 7 7 11 14 7 10 7 7 8 8 9 9 9 10 10
6 5 4 5 5 5 6 7 7 7 8 7 7 7 8 9 9 10 10 10 10 9 9 9 10 9 9 9 8 12 15 16 12 13 7 7 8 8 9 9 9 9 10